This is the latest recevied weather packets stored in our database for station/object N8JE-13. If no packets are shown the sender has not sent any weather packets the latest 10 day(s).
| Time | Temp. | Humidity | Pressure | Rain* | Wind** | Luminosity | Snow |
|---|---|---|---|---|---|---|---|
| 1777406793 | 21.67° C | 65% | 1012 hPa | 0 mm | - | - | - |
| 1777406492 | 21.67° C | 65% | 1012 hPa | 0 mm | - | - | - |
| 1777406192 | 21.67° C | 68% | 1012 hPa | 0 mm | - | - | - |
| 1777405893 | 21.11° C | 66% | 1012.2 hPa | 0 mm | - | - | - |
| 1777405593 | 21.67° C | 65% | 1012.1 hPa | 0 mm | - | - | - |
| 1777405292 | 21.67° C | 66% | 1012.1 hPa | 0 mm | - | - | - |
| 1777404994 | 22.22° C | 66% | 1012.2 hPa | 0 mm | - | - | - |
| 1777404693 | 21.67° C | 67% | 1012.2 hPa | 0 mm | - | - | - |
| 1777404393 | 21.67° C | 67% | 1012.3 hPa | 0 mm | - | - | - |
| 1777404092 | 21.11° C | 68% | 1012.2 hPa | 0 mm | - | - | - |
| 1777403793 | 21.11° C | 69% | 1012.2 hPa | 0 mm | - | - | - |
| 1777403493 | 21.11° C | 68% | 1012.3 hPa | 0 mm | - | - | - |
| 1777403192 | 21.11° C | 69% | 1012.3 hPa | 0 mm | - | - | - |
| 1777402892 | 21.11° C | 69% | 1012.2 hPa | 0 mm | - | - | - |
| 1777402593 | 21.11° C | 70% | 1012.3 hPa | 0 mm | - | - | - |
| 1777402293 | 20.56° C | 71% | 1012.4 hPa | 0 mm | - | - | - |
| 1777401992 | 21.11° C | 69% | 1012.4 hPa | 0 mm | - | - | - |
| 1777401694 | 21.11° C | 72% | 1012.4 hPa | 0 mm | - | - | - |
| 1777401392 | 21.11° C | 69% | 1012.3 hPa | 0 mm | - | - | - |
| 1777401092 | 21.11° C | 72% | 1012.3 hPa | 0 mm | - | - | - |
| 1777400793 | 21.11° C | 71% | 1012.4 hPa | 0 mm | - | - | - |
| 1777400492 | 20.56° C | 71% | 1012.5 hPa | 0 mm | - | - | - |
| 1777400193 | 21.11° C | 70% | 1012.5 hPa | 0 mm | - | - | - |
| 1777399893 | 21.11° C | 70% | 1012.6 hPa | 0 mm | - | - | - |
| 1777399592 | 21.11° C | 73% | 1012.5 hPa | 0 mm | - | - | - |
* Rain latest hour (hover to see other rain measurements)
** Current wind speed in m/s (hover to see current wind gust speed)